Location: Mountain Grove
(34.0887°N, 86.6172°W)
Time: 21:36:03
(UTC+00:00)

SL-19 R/B - Pass Details

Date: 14 July 2020
Orbit: 358 x 810 km, 99.4° (Epoch: 08 August)

Event Time Altitude Azimuth Distance (km) Brightness Sun altitude
Rises 09:02:01 0° 15° (NNE) 2,262 8.5 -18.4°
Reaches altitude 10° 09:03:53 10° 17° (NNE) 1,442 7.4 -18.1°
Maximum altitude 09:06:55 77° 104° (ESE) 439 3.8 -17.6°
Enters shadow 09:07:58 40° 183° (S) 654 4.3 -17.5°
